Lakewood, CO

2:41 AM MST on March 04, 2015 (GMT -0700)
Centennial | Change Station
CLOSE
Current Station
Airport
Location: Denver Centennial,
Elevation: 5883 ft
Nearby Weather Stations
Active Advisory: Winter Weather Advisory Active Notice: Local Storm Report

Elev 5883 ft 39.56 °N, 104.85 °W | Updated 33 minutes ago

Overcast
Overcast
12 °F
Feels Like -2 °F
N
12
Wind Variable Wind from North

Today
High -- | Low -- °F
--% Chance of Precip.
Yesterday
High -- | Low -- °F
Precip. -- in
6:29 AM 5:55 PM
Waxing Gibbous, 98% visible
Pressure 29.95 in
Visibility 1.0 miles
Clouds Scattered Clouds 800 ft
Overcast 1400 ft
Windchill -2 °F
Dew Point 10 °F
Humidity 92%
Rainfall 0.01 in
Snow Depth Not available.
UV 0 out of 12
Pollen .70 out of 12
Air Quality Not available.
Flu Activity Not available.
SPECI KAPA 040908Z 36010KT 1SM -SN BR SCT008 OVC014 M11/M12 A2995 RMK AO2 SFC VIS 1 1/4 P0000 T11111122

More Conditions Fewer Conditions

Pressure 29.95 in
Visibility 1.0 miles
Clouds Scattered Clouds 800 ft
Overcast 1400 ft
Windchill -2 °F
Dew Point 10 °F
Humidity 92%
Rainfall 0.01 in
Snow Depth Not available.
UV 0 out of 12
Pollen .70 out of 12
Air Quality Not available.
Flu Activity Not available.
SPECI KAPA 040908Z 36010KT 1SM -SN BR SCT008 OVC014 M11/M12 A2995 RMK AO2 SFC VIS 1 1/4 P0000 T11111122

More Conditions Fewer Conditions

10-Day Weather Forecast

Almanac

Astronomy

Mar. 04, 2015 Rise Set
Actual Time
Civil Twilight
Nautical Twilight
Astronomical Twilight
Moon
Length of Visible Light
Length of Day
Tomorrow will be .
, % of the Moon is Illuminated

Today's Extremes

State Highs State Lows

Community

WunderPhotos

Upload Photos

1,802,425 photos uploaded!

WunderBlogs® & News

Nearby

Air Quality

  Air Quality AQ Index Pollutant
Not available.

Snow Depth

Station Depth Elevation

Earthquake Activity

City Distance Mag. Time & Date
Minimum magnitude displayed is 2.5.

Coastal Water Temperatures

Place Temperature

Nearby Weather Stations

Winter Weather Advisory
Statement as of 9:39 PM MST on March 03, 2015

... Winter Weather Advisory remains in effect until 5 am MST
Wednesday...

* timing... snow will gradually decrease from north to south across
the Denver Metro area after midnight... but some snow may linger
on the Palmer Divide into Wednesday morning.

* Storm total snow accumulation... 2 to 5 inches... heaviest near
the foothills.

* Wind/visibility... northeast winds 10 to 15 mph. The heavier snow
this evening may reduce visibility to a quarter mile or less for
a brief time.

* Impacts... roads will be snowpacked and icy. Expect a slick and
slow Wednesday morning commute. Allow extra time to reach your
destination safely.

Precautionary/preparedness actions...

A Winter Weather Advisory for snow means that periods of snow
will cause primarily travel difficulties. Be prepared for snow
covered roads and limited visibilities... and use caution while
driving.